Surface/Atmospheric History
01/19/2019 22:58  to  1/20/2019 22:58
Change End Date:
To complete the export process:
1) Select all of the data below
2) Copy the data to the clipboard
3) Open a word processor such as Notepad
4) Paste the data into the word processor
5) Save the file

Date/Time (MST), SfStat, SfTemp, PvtTemp, SubTemp, AirTemp, RH, Dewpoint, AvgWindSpeed, GustWindSpeed, WindDirection, PrecipType, PrecipIntenisity
01/20/2019 22:52, Ice Warning , 30.4 , , 31, 29, 95, 28, 17, 21, E, None, None
01/20/2019 22:50, Ice Warning , 30.4 , , 30, 29, 95, 28, 17, 21, E, None, None
01/20/2019 22:40, Ice Warning , 30.4 , , 30, 29, 96, 28, 16, 21, E, None, None
01/20/2019 22:37, Ice Warning , 30.6 , , 30, 29, 96, 28, 17, 21, E, None, None
01/20/2019 22:30, Ice Warning , 30.6 , , 30, 29, 96, 28, 14, 24, E, None, None
01/20/2019 22:22, Ice Warning , 30.6 , , 30, 30, 96, 29, 17, 24, E, None, None
01/20/2019 22:20, Ice Warning , 30.6 , , 30, 30, 96, 29, 17, 24, E, None, None
01/20/2019 22:10, Ice Warning , 30.6 , , 30, 30, 96, 29, 19, 24, E, None, None
01/20/2019 22:07, Ice Warning , 30.6 , , 30, 30, 96, 29, 16, 24, E, None, None
01/20/2019 22:00, Ice Warning , 30.6 , , 30, 30, 96, 29, 18, 22, E, None, None
01/20/2019 21:52, Ice Warning , 30.6 , , 30, 30, 96, 29, 15, 20, E, None, None
01/20/2019 21:50, Ice Warning , 30.6 , , 30, 30, 96, 29, 15, 20, E, None, None
01/20/2019 21:40, Ice Warning , 30.6 , , 30, 30, 96, 29, 17, 22, E, None, None
01/20/2019 21:37, Ice Warning , 30.6 , , 30, 30, 96, 29, 17, 22, E, None, None
01/20/2019 21:30, Ice Warning , 30.6 , , 30, 30, 96, 29, 17, 22, E, None, None
01/20/2019 21:22, Ice Warning , 30.6 , , 30, 30, 96, 29, 17, 22, E, None, None
01/20/2019 21:20, Ice Warning , 30.6 , , 30, 30, 96, 29, 18, 22, E, None, None
01/20/2019 21:10, Ice Warning , 30.6 , , 30, 30, 96, 29, 17, 21, E, None, None
01/20/2019 21:07, Ice Warning , 30.6 , , 30, 30, 96, 29, 17, 21, E, None, None
01/20/2019 21:00, Ice Warning , 30.6 , , 30, 30, 96, 29, 14, 20, E, None, None
01/20/2019 20:52, Ice Warning , 30.7 , , 30, 30, 96, 29, 16, 18, E, None, None
01/20/2019 20:50, Ice Warning , 30.7 , , 30, 30, 97, 29, 15, 18, E, None, None
01/20/2019 20:40, Ice Warning , 30.7 , , 30, 30, 96, 29, 16, 20, NE, Yes,
01/20/2019 20:37, Ice Warning , 30.7 , , 30, 30, 96, 29, 16, 21, E, None, None
01/20/2019 20:30, Ice Warning , 30.7 , , 30, 30, 96, 29, 17, 21, E, None, None
01/20/2019 20:22, Ice Warning , 30.9 , , 30, 30, 96, 29, 17, 20, NE, Yes,
01/20/2019 20:20, Ice Warning , 31.1 , , 30, 30, 96, 29, 15, 20, E, None, None
01/20/2019 20:10, Ice Warning , 30.9 , , 30, 30, 97, 29, 13, 17, E, None, None
01/20/2019 20:07, Ice Warning , 30.9 , , 30, 30, 97, 29, 13, 17, E, Yes,
01/20/2019 20:00, Ice Warning , 31.1 , , 30, 30, 97, 29, 12, 16, E, Yes,
01/20/2019 19:52, Ice Warning , 31.1 , , 30, 30, 97, 29, 12, 16, E, Yes,
01/20/2019 19:50, Ice Warning , 31.1 , , 30, 30, 97, 29, 12, 16, E, Yes,
01/20/2019 19:40, Ice Warning , 31.1 , , 30, 30, 97, 30, 12, 15, E, Yes,
01/20/2019 19:37, Ice Warning , 30.9 , , 30, 30, 97, 30, 12, 15, NE, Yes,
01/20/2019 19:29, Ice Warning , 31.1 , , 30, 30, 97, 30, 10, 12, NE, Yes,
01/20/2019 19:22, Ice Warning , 31.1 , , 30, 31, 96, 30, 10, 12, NE, Yes,
01/20/2019 19:19, Ice Warning , 31.1 , , 30, 31, 96, 30, 10, 12, NE, Yes,
01/20/2019 19:09, Ice Warning , 31.1 , , 30, 31, 96, 31, 11, 14, NE, Yes,
01/20/2019 19:07, Ice Warning , 31.1 , , 30, 32, 96, 31, 10, 14, E, Yes,
01/20/2019 18:59, Ice Warning , 31.1 , , 30, 32, 96, 31, 10, 13, E, Yes,
01/20/2019 18:52, Ice Warning , 31.1 , , 30, 32, 95, 31, 10, 12, E, Yes,
01/20/2019 18:49, Ice Warning , 31.1 , , 30, 32, 96, 30, 9, 11, E, Yes,
01/20/2019 18:39, Ice Warning , 31.1 , , 30, 31, 94, 30, 8, 10, E, Yes,
01/20/2019 18:37, Ice Warning , 31.1 , , 30, 31, 94, 30, 9, 10, E, Yes,
01/20/2019 18:29, Ice Warning , 31.1 , , 30, 31, 93, 30, 7, 10, E, Yes,
01/20/2019 18:22, Ice Warning , 30.9 , , 30, 31, 92, 30, 7, 9, E, Yes,
01/20/2019 18:19, Ice Warning , 30.9 , , 30, 32, 92, 30, 7, 9, E, Yes,
01/20/2019 18:09, Ice Warning , 30.9 , , 30, 32, 90, 29, 7, 8, E, Yes,
01/20/2019 18:07, Ice Warning , 30.9 , , 30, 32, 90, 29, 7, 9, E, Yes,
01/20/2019 17:59, Ice Warning , 31.1 , , 30, 32, 89, 29, 7, 9, E, Yes,
01/20/2019 17:52, Ice Warning , 31.3 , , 30, 32, 88, 29, 7, 9, E, Yes,
01/20/2019 17:49, Ice Warning , 31.1 , , 30, 33, 88, 29, 7, 9, E, None, None
01/20/2019 17:39, Ice Warning , 31.3 , , 30, 33, 86, 29, 6, 7, E, None, None
01/20/2019 17:37, Ice Warning , 31.3 , , 30, 33, 85, 29, 6, 7, E, None, None
01/20/2019 17:29, Ice Warning , 31.3 , , 30, 33, 82, 28, 6, 7, E, Yes,
01/20/2019 17:22, Ice Warning , 31.3 , , 30, 33, 80, 28, 6, 7, E, None, None
01/20/2019 17:19, Ice Warning , 31.3 , , 30, 33, 80, 27, 6, 7, E, None, None
01/20/2019 17:09, Ice Warning , 31.5 , , 30, 33, 81, 28, 4, 7, E, None, None
01/20/2019 17:07, Ice Warning , 31.5 , , 30, 33, 79, 27, 4, 9, NE, None, None
01/20/2019 16:59, Ice Warning , 31.5 , , 30, 33, 76, 27, 6, 9, E, None, None
01/20/2019 16:49, Ice Warning , 31.6 , , 30, 33, 80, 28, 6, 9, NE, None, None
01/20/2019 16:39, Ice Warning , 31.8 , , 30, 34, 74, 26, 6, 9, E, None, None
01/20/2019 16:37, Ice Warning , 31.8 , , 30, 34, 75, 26, 5, 6, NE, None, None
01/20/2019 16:29, Chemically Wet , 32 , , 30, 34, 76, 27, 4, 7, NE, None, None
01/20/2019 16:22, Wet , 32.2 , , 30, 35, 70, 26, 5, 7, E, None, None
01/20/2019 16:19, Wet , 32.4 , , 30, 35, 72, 27, 4, 7, SE, None, None
01/20/2019 16:09, Wet , 32.5 , , 30, 33, 79, 28, 5, 7, E, None, None
01/20/2019 16:07, Wet , 32.5 , , 30, 33, 79, 28, 4, 7, E, None, None
01/20/2019 15:59, Wet , 32.5 , , 30, 33, 81, 28, 4, 6, E, None, None
01/20/2019 15:52, Wet , 32.7 , , 30, 34, 78, 28, 4, 6, SE, None, None
01/20/2019 15:48, Wet , 32.9 , , 30, 33, 79, 28, 4, 6, SE, None, None
01/20/2019 15:38, Wet , 32.9 , , 30, 34, 76, 27, 5, 6, SE, None, None
01/20/2019 15:37, Wet , 33.1 , , 30, 34, 76, 27, 5, 6, SE, None, None
01/20/2019 15:28, Wet , 33.1 , , 30, 34, 76, 27, 4, 6, SE, None, None
01/20/2019 15:22, Wet , 33.3 , , 30, 33, 78, 27, 6, 6, SE, None, None
01/20/2019 15:18, Wet , 33.3 , , 30, 33, 80, 28, 5, 7, SE, None, None
01/20/2019 15:08, Wet , 33.6 , , 30, 33, 79, 28, 7, 7, SE, None, None
01/20/2019 15:07, Wet , 33.6 , , 30, 33, 80, 28, 7, 7, SE, None, None
01/20/2019 14:58, Wet , 33.8 , , 30, 33, 80, 28, 4, 7, SE, None, None
01/20/2019 14:52, Wet , 33.8 , , 30, 33, 80, 28, 6, 7, SE, None, None
01/20/2019 14:48, Wet , 34 , , 30, 33, 79, 28, 6, 7, SE, None, None
01/20/2019 14:38, Wet , 34.2 , , 30, 33, 80, 28, 6, 7, SE, None, None
01/20/2019 14:37, Wet , 34.3 , , 30, 33, 81, 28, 6, 7, SE, None, None
01/20/2019 14:28, Wet , 34.7 , , 30, 33, 81, 28, 6, 7, SE, None, None
01/20/2019 14:22, Wet , 34.7 , , 30, 33, 82, 28, 6, 7, SE, None, None
01/20/2019 14:18, Wet , 34.5 , , 30, 33, 82, 28, 6, 7, SE, None, None
01/20/2019 14:08, Wet , 34.7 , , 30, 33, 83, 29, 4, 7, SE, None, None
01/20/2019 14:07, Wet , 34.7 , , 30, 33, 83, 29, 4, 7, SE, None, None
01/20/2019 13:58, Wet , 35.1 , , 30, 33, 82, 29, 6, 7, SE, None, None
01/20/2019 13:52, Wet , 35.4 , , 30, 34, 79, 28, 6, 6, SE, None, None
01/20/2019 13:48, Wet , 35.6 , , 30, 34, 78, 28, 5, 6, SE, None, None
01/20/2019 13:38, Wet , 35.6 , , 30, 34, 78, 28, 4, 5, SE, None, None
01/20/2019 13:37, Wet , 35.6 , , 30, 34, 80, 28, 4, 6, SE, None, None
01/20/2019 13:28, Wet , 35.2 , , 30, 33, 78, 28, 5, 6, S, None, None
01/20/2019 13:22, Wet , 35.6 , , 30, 34, 77, 28, 5, 7, S, None, None
01/20/2019 13:18, Wet , 36 , , 30, 34, 75, 27, 6, 7, S, None, None
01/20/2019 13:08, Wet , 36.1 , , 30, 34, 76, 27, 6, 7, SW, None, None
01/20/2019 13:07, Wet , 36.1 , , 30, 34, 75, 27, 6, 7, S, None, None
01/20/2019 12:58, Wet , 35.8 , , 30, 34, 79, 28, 6, 7, S, None, None
01/20/2019 12:52, Wet , 35.8 , , 30, 33, 78, 27, 6, 7, S, None, None
01/20/2019 12:48, Wet , 36 , , 30, 33, 79, 28, 6, 7, S, None, None
01/20/2019 12:38, Wet , 35.6 , , 30, 33, 81, 28, 6, 7, S, None, None
01/20/2019 12:37, Wet , 35.6 , , 30, 33, 80, 27, 7, 7, S, None, None
01/20/2019 12:28, Wet , 35.2 , , 30, 32, 81, 27, 7, 8, S, None, None
01/20/2019 12:22, Wet , 35.2 , , 30, 32, 82, 27, 6, 6, S, None, None
01/20/2019 12:18, Wet , 34.9 , , 30, 32, 80, 26, 4, 6, S, None, None
01/20/2019 12:07, Wet , 34.7 , , 30, 32, 80, 26, 5, 7, S, None, None
01/20/2019 12:07, Wet , 34.7 , , 30, 31, 80, 26, 5, 7, S, None, None
01/20/2019 11:57, Wet , 34.2 , , 30, 32, 77, 26, 6, 7, S, None, None
01/20/2019 11:52, Wet , 34 , , 30, 32, 80, 27, 6, 7, S, None, None
01/20/2019 11:47, Wet , 34 , , 30, 32, 75, 25, 6, 6, S, None, None
01/20/2019 11:37, Wet , 34 , , 30, 32, 75, 25, 4, 6, SW, None, None
01/20/2019 11:37, Wet , 34 , , 30, 32, 75, 25, 4, 5, SW, None, None
01/20/2019 11:27, Wet , 33.6 , , 30, 31, 80, 26, 4, 4, SW, None, None
01/20/2019 11:22, Wet , 34 , , 30, 31, 79, 26, 4, 4, S, None, None
01/20/2019 11:17, Wet , 33.8 , , 30, 32, 76, 25, 2, 3, S, None, None
01/20/2019 11:07, Wet , 32.7 , , 30, 31, 76, 25, 2, 3, S, None, None
01/20/2019 11:07, Wet , 32.7 , , 30, 31, 76, 25, 2, 4, S, None, None
01/20/2019 10:57, Wet , 32.4 , , 30, 31, 78, 25, 3, 4, S, None, None
01/20/2019 10:52, Wet , 32.2 , , 30, 30, 79, 24, 1, 4, E, None, None
01/20/2019 10:47, Ice Warning , 31.6 , , 30, 30, 80, 24, 3, 4, S, None, None
01/20/2019 10:37, Ice Warning , 31.6 , , 30, 30, 78, 24, 3, 4, S, None, None
01/20/2019 10:37, Ice Warning , 31.6 , , 30, 30, 78, 24, 3, 4, S, None, None
01/20/2019 10:27, Ice Warning , 31.6 , , 30, 29, 81, 24, 4, 6, SE, None, None
01/20/2019 10:22, Ice Warning , 31.6 , , 30, 29, 80, 24, 4, 5, SE, None, None
01/20/2019 10:17, Ice Warning , 31.3 , , 30, 29, 82, 24, 3, 4, SE, None, None
01/20/2019 10:07, Ice Warning , 30.2 , , 30, 29, 80, 23, 3, 4, S, None, None
01/20/2019 10:07, Ice Warning , 30.2 , , 30, 29, 80, 23, 3, 4, S, None, None
01/20/2019 09:57, Ice Warning , 29.7 , , 30, 30, 76, 24, 4, 4, S, None, None
01/20/2019 09:52, Ice Warning , 29.7 , , 30, 30, 75, 23, 2, 3, S, None, None
01/20/2019 09:47, Ice Warning , 29.3 , , 30, 31, 73, 23, 2, 3, S, None, None
01/20/2019 09:37, Ice Warning , 29.1 , , 30, 33, 70, 24, 1, 2, W, None, None
01/20/2019 09:37, Ice Warning , 29.1 , , 30, 33, 70, 24, 1, 2, W, None, None
01/20/2019 09:27, Ice Warning , 29.7 , , 30, 35, 69, 26, 1, 1, W, None, None
01/20/2019 09:22, Ice Warning , 29.7 , , 30, 34, 68, 25, 1, 1, W, None, None
01/20/2019 09:17, Ice Warning , 28.8 , , 30, 31, 73, 23, 1, 2, SW, None, None
01/20/2019 09:07, Ice Warning , 26.8 , , 30, 29, 77, 22, 0, 1, E, None, None
01/20/2019 09:07, Ice Warning , 26.8 , , 30, 29, 77, 23, 0, 1, E, None, None
01/20/2019 08:57, Ice Warning , 25.7 , , 30, 28, 79, 22, 0, 1, SW, None, None
01/20/2019 08:52, Ice Warning , 25.5 , , 30, 29, 77, 22, 0, 1, SW, None, None
01/20/2019 08:46, Ice Warning , 25.2 , , 30, 28, 80, 22, 1, 1, SW, None, None
01/20/2019 08:37, Ice Warning , 24.3 , , 30, 27, 78, 21, 0, 2, SW, None, None
01/20/2019 08:36, Ice Warning , 24.3 , , 30, 28, 78, 22, 0, 2, SW, None, None
01/20/2019 08:26, Ice Warning , 23.4 , , 30, 29, 77, 23, 3, 4, SW, None, None
01/20/2019 08:22, Ice Warning , 22.8 , , 30, 28, 80, 22, 3, 4, SW, None, None
01/20/2019 08:16, Ice Warning , 22.3 , , 30, 26, 81, 21, 2, 3, SW, None, None
01/20/2019 08:07, Ice Warning , 21.9 , , 30, 28, 80, 23, 1, 4, W, None, None
01/20/2019 08:06, Ice Warning , 21.9 , , 30, 28, 80, 23, 1, 4, W, None, None
01/20/2019 07:56, Ice Warning , 21.7 , , 30, 25, 87, 22, 3, 4, NW, None, None
01/20/2019 07:52, Ice Warning , 21.6 , , 30, 26, 84, 22, 4, 4, NW, None, None
01/20/2019 07:46, Ice Warning , 21.6 , , 30, 27, 89, 24, 4, 4, NW, None, None
01/20/2019 07:37, Ice Warning , 21.7 , , 30, 26, 89, 23, 4, 6, NW, None, None
01/20/2019 07:36, Ice Warning , 21.7 , , 30, 26, 88, 23, 4, 6, NW, None, None
01/20/2019 07:26, Ice Warning , 22.3 , , 30, 27, 90, 25, 4, 5, NW, None, None
01/20/2019 07:22, Ice Warning , 22.5 , , 30, 26, 91, 24, 4, 6, NW, None, None
01/20/2019 07:16, Ice Warning , 22.5 , , 30, 26, 86, 22, 4, 7, NW, None, None
01/20/2019 07:07, Ice Warning , 22.8 , , 30, 26, 83, 22, 6, 8, W, None, None
01/20/2019 07:06, Ice Warning , 22.8 , , 30, 26, 82, 22, 6, 8, W, None, None
01/20/2019 06:56, Ice Warning , 23.4 , , 30, 28, 81, 22, 6, 9, W, None, None
01/20/2019 06:52, Ice Warning , 23.5 , , 30, 28, 79, 23, 7, 9, W, None, None
01/20/2019 06:46, Ice Warning , 23.9 , , 30, 29, 80, 23, 7, 9, W, None, None
01/20/2019 06:37, Ice Warning , 24.3 , , 30, 27, 85, 23, 3, 6, W, None, None
01/20/2019 06:36, Ice Warning , 24.3 , , 30, 27, 86, 24, 2, 6, W, None, None
01/20/2019 06:26, Ice Warning , 24.6 , , 30, 29, 80, 24, 5, 9, W, None, None
01/20/2019 06:22, Ice Warning , 24.8 , , 30, 30, 79, 24, 6, 9, W, None, None
01/20/2019 06:16, Ice Warning , 25 , , 30, 29, 80, 24, 7, 9, W, None, None
01/20/2019 06:07, Ice Warning , 25.2 , , 30, 29, 81, 24, 7, 9, W, None, None
01/20/2019 06:06, Ice Warning , 25.2 , , 30, 29, 81, 24, 7, 9, W, None, None
01/20/2019 05:56, Ice Warning , 25.3 , , 30, 30, 80, 24, 6, 7, W, None, None
01/20/2019 05:52, Ice Warning , 25.5 , , 30, 30, 80, 24, 6, 7, W, None, None
01/20/2019 05:46, Ice Warning , 25.7 , , 30, 30, 80, 24, 6, 7, W, None, None
01/20/2019 05:37, Ice Warning , 25.7 , , 30, 30, 81, 25, 6, 10, NW, None, None
01/20/2019 05:36, Ice Warning , 25.7 , , 30, 30, 80, 24, 6, 10, W, None, None
01/20/2019 05:25, Ice Warning , 25.9 , , 30, 30, 80, 25, 7, 9, W, None, None
01/20/2019 05:22, Ice Warning , 25.9 , , 30, 31, 79, 25, 7, 10, W, None, None
01/20/2019 05:15, Ice Warning , 26.1 , , 30, 31, 80, 25, 8, 10, W, None, None
01/20/2019 05:07, Ice Warning , 26.1 , , 30, 31, 80, 25, 9, 13, W, None, None
01/20/2019 05:05, Ice Warning , 26.1 , , 30, 31, 80, 25, 9, 13, W, None, None
01/20/2019 04:55, Ice Warning , 25.9 , , 30, 31, 80, 25, 9, 12, W, None, None
01/20/2019 04:52, Ice Warning , 26.1 , , 30, 31, 79, 25, 10, 12, W, None, None
01/20/2019 04:45, Ice Warning , 26.1 , , 30, 30, 81, 26, 9, 11, W, None, None
01/20/2019 04:37, Ice Warning , 26.2 , , 30, 31, 82, 26, 7, 13, NW, None, None
01/20/2019 04:35, Ice Warning , 26.2 , , 30, 31, 82, 26, 9, 13, NW, None, None
01/20/2019 04:25, Ice Warning , 26.4 , , 30, 31, 83, 26, 11, 13, NW, None, None
01/20/2019 04:22, Ice Warning , 26.4 , , 30, 31, 83, 26, 11, 12, NW, None, None
01/20/2019 04:15, Ice Warning , 26.6 , , 30, 31, 83, 27, 11, 12, NW, None, None
01/20/2019 04:07, Ice Warning , 26.8 , , 30, 32, 82, 27, 11, 14, NW, None, None
01/20/2019 04:05, Ice Warning , 26.8 , , 30, 32, 82, 27, 11, 14, NW, None, None
01/20/2019 03:55, Ice Warning , 26.6 , , 30, 32, 82, 27, 12, 14, NW, None, None
01/20/2019 03:52, Ice Warning , 26.6 , , 30, 32, 83, 27, 11, 14, NW, None, None
01/20/2019 03:45, Ice Warning , 26.6 , , 30, 32, 83, 27, 12, 15, NW, None, None
01/20/2019 03:37, Ice Warning , 26.6 , , 30, 32, 85, 28, 11, 14, W, None, None
01/20/2019 03:35, Ice Warning , 26.6 , , 30, 32, 84, 28, 11, 14, W, None, None
01/20/2019 03:25, Ice Warning , 26.8 , , 30, 33, 84, 28, 12, 16, W, None, None
01/20/2019 03:22, Ice Warning , 26.8 , , 30, 32, 84, 28, 12, 16, W, None, None
01/20/2019 03:15, Ice Warning , 26.8 , , 30, 33, 83, 28, 12, 17, W, None, None
01/20/2019 03:07, Ice Warning , 26.8 , , 30, 32, 85, 28, 12, 15, W, None, None
01/20/2019 03:05, Ice Warning , 26.8 , , 30, 32, 85, 28, 12, 15, W, None, None
01/20/2019 02:55, Ice Warning , 26.8 , , 30, 33, 85, 29, 12, 17, W, None, None
01/20/2019 02:52, Ice Warning , 26.8 , , 30, 32, 84, 28, 12, 17, W, None, None
01/20/2019 02:45, Ice Warning , 26.6 , , 30, 33, 84, 29, 13, 17, W, None, None
01/20/2019 02:37, Ice Warning , 26.2 , , 30, 32, 88, 29, 11, 12, W, None, None
01/20/2019 02:35, Ice Warning , 26.2 , , 30, 32, 88, 29, 11, 12, W, None, None
01/20/2019 02:25, Ice Warning , 26.1 , , 30, 31, 92, 29, 9, 12, W, None, None
01/20/2019 02:22, Ice Warning , 26.1 , , 30, 31, 91, 29, 7, 12, W, None, None
01/20/2019 02:15, Ice Warning , 25.9 , , 30, 31, 90, 29, 9, 12, W, None, None
01/20/2019 02:07, Ice Warning , 25.9 , , 30, 31, 91, 29, 9, 12, W, None, None
01/20/2019 02:05, Ice Warning , 25.7 , , 30, 31, 92, 29, 9, 11, W, None, None
01/20/2019 01:54, Ice Warning , 25.7 , , 30, 31, 92, 29, 9, 13, W, None, None
01/20/2019 01:52, Ice Warning , 25.7 , , 30, 31, 92, 29, 11, 13, W, None, None
01/20/2019 01:44, Ice Warning , 25.3 , , 30, 29, 94, 28, 7, 12, W, None, None
01/20/2019 01:37, Ice Warning , 25.3 , , 30, 30, 93, 28, 7, 9, W, None, None
01/20/2019 01:34, Ice Warning , 25.3 , , 30, 30, 93, 28, 7, 9, W, None, None
01/20/2019 01:24, Ice Warning , 25.5 , , 30, 31, 93, 29, 9, 13, W, None, None
01/20/2019 01:22, Ice Warning , 25.5 , , 30, 31, 93, 29, 10, 14, NW, None, None
01/20/2019 01:14, Ice Warning , 25.3 , , 30, 30, 92, 28, 11, 14, NW, None, None
01/20/2019 01:07, Ice Warning , 25 , , 30, 30, 93, 28, 11, 15, NW, None, None
01/20/2019 01:04, Ice Warning , 25 , , 30, 30, 93, 28, 11, 14, NW, None, None
01/20/2019 00:54, Ice Warning , 24.4 , , 30, 27, 94, 26, 7, 9, NW, None, None
01/20/2019 00:52, Ice Warning , 24.4 , , 30, 27, 94, 26, 7, 9, NW, None, None
01/20/2019 00:44, Ice Warning , 24.4 , , 30, 27, 95, 26, 4, 4, NW, None, None
01/20/2019 00:37, Ice Warning , 24.6 , , 30, 27, 94, 26, 3, 5, W, None, None
01/20/2019 00:34, Ice Warning , 24.6 , , 30, 27, 94, 26, 4, 5, W, None, None
01/20/2019 00:24, Ice Warning , 24.6 , , 30, 28, 91, 26, 4, 6, SW, None, None
01/20/2019 00:22, Ice Warning , 24.8 , , 30, 27, 91, 25, 3, 6, SW, None, None
01/20/2019 00:14, Ice Warning , 25.3 , , 30, 29, 87, 26, 4, 12, W, None, None
01/20/2019 00:07, Ice Warning , 25.5 , , 30, 30, 93, 28, 10, 13, NW, None, None
01/20/2019 00:04, Ice Warning , 25.5 , , 30, 30, 92, 28, 11, 14, NW, None, None
01/19/2019 23:54, Ice Warning , 25.3 , , 30, 29, 93, 28, 11, 14, NW, None, None
01/19/2019 23:52, Ice Warning , 25.3 , , 30, 29, 94, 28, 12, 14, NW, None, None
01/19/2019 23:44, Ice Warning , 25.3 , , 30, 28, 95, 27, 12, 12, NW, None, None
01/19/2019 23:37, Ice Warning , 25.5 , , 30, 28, 95, 27, 11, 11, NW, None, None
01/19/2019 23:34, Ice Warning , 25.5 , , 30, 28, 96, 27, 11, 11, NW, None, None
01/19/2019 23:24, Ice Warning , 25.7 , , 30, 28, 94, 27, 7, 9, NW, None, None
01/19/2019 23:22, Ice Warning , 25.7 , , 30, 28, 94, 27, 8, 9, NW, None, None
01/19/2019 23:14, Ice Warning , 26.4 , , 30, 29, 94, 28, 9, 11, NW, None, None
01/19/2019 23:07, Ice Warning , 26.8 , , 30, 30, 94, 28, 10, 11, NW, None, None
01/19/2019 23:04, Ice Warning , 26.8 , , 30, 30, 95, 29, 9, 14, NW, None, None
Change End Date:

Copyright © 1998-2015 Vaisala, Inc.
All Rights Reserved
Send comments about the data to:
SCAN Web ® is a registered trademark of Vaisala, Inc.
SCAN Web Version 6.0